Terminal Aerodrome Forecast
Issued by NWS

Home | Current Version | Previous Version | Text Only | Print | Product List | Glossary On
Versions: 1 2 3 4 5 6 7 8 9 10 11 12
000
FTUS45 KRIW 202300
TAFCOD
TAF
KCOD 202327Z 2100/2124 21009KT P6SM SCT060 BKN090
     FM210300 23012G18KT P6SM SCT050 BKN090 WS020/26035KT
     FM210600 25018G28KT P6SM SCT050 BKN100
      AMD LTD TO CLD VIS AND WIND=

USA.gov is the U.S. government's official web portal to all federal, state and local government web resources and services.